Regional Weather Roundup
Issued by NWS

Home | Current Version | Previous Version | Text Only | Print | Product List | Glossary On
Versions: 1 2 3 4 5 6 7 8 9 10 11 12 13 14 15 16 17 18 19 20 21 22 23 24 25 26 27 28 29 30 31 32 33 34 35 36 37 38 39 40 41 42 43 44 45 46 47 48 49 50
000
ASUS44 KFWD 022015
RWRTX
NORTH TEXAS HOURLY WEATHER ROUNDUP
NATIONAL WEATHER SERVICE FORT WORTH TX
200 PM CST MON MAR 02 2015

NOTE: "FAIR" INDICATES FEW OR NO CLOUDS BELOW 12,000 FEET WITH NO
SIGNIFICANT WEATHER AND/OR OBSTRUCTIONS TO VISIBILITY.

TXZ118-119-022100-
DALLAS/FORT WORTH METROPLEX

CITY           SKY/WX    TMP DP  RH WIND       PRES   REMARKS
DFW AIRPORT    CLOUDY    38  36  92 NW6       30.28F FOG     WCI  33
DALLAS LOVE    CLOUDY    41  37  86 CALM      30.28F FOG
FTW MEACHAM    CLOUDY    39  35  86 NW7       30.28F FOG     WCI  34
DAL-EXECUTIVE  CLOUDY    39  37  92 N5        30.27F FOG     WCI  36
FTW-ALLIANCE   CLOUDY    37  35  92 NW6       30.29F FOG     WCI  32
FTW-SPINKS     CLOUDY    37  36  93 N9        30.29F FOG     WCI  31
ARLINGTON      CLOUDY    40  35  83 N7        30.28F HAZE    WCI  35
GRAND PRAIRIE  CLOUDY    37  37 100 NW3       30.30F FOG
ADDISON        CLOUDY    41  37  87 CALM      30.28F FOG
MESQUITE       CLOUDY    39  37  93 NW5       30.29F FOG     WCI  36
LANCASTER      CLOUDY    39  37  91 N5        30.29F FOG     WCI  35
$$

TXZ091>094-102>105-117-120-121-131>134-022100-
NORTH CENTRAL TEXAS

CITY           SKY/WX    TMP DP  RH WIND       PRES   REMARKS
SHRMAN/DENISON CLOUDY    41  40  95 CALM      30.29F
GAINESVILLE    CLOUDY    37  34  89 CALM      30.30F FOG
BOWIE          CLOUDY    36  33  90 NW5       30.27F WCI  32
BRIDGEPORT     CLOUDY    36  36 100 CALM      30.31F
DECATUR        CLOUDY    36  35  97 CALM      30.27F FOG
DENTON         CLOUDY    37  35  92 NW3       30.30F FOG
MCKINNEY       CLOUDY    41  38  89 CALM      30.28F
GREENVILLE     CLOUDY    41  39  93 E5        30.27F WCI  38
TERRELL        CLOUDY    43  40  89 E8        30.26F FOG     WCI  38
WAXAHACHIE     CLOUDY    38  38 100 NW5       30.28F FOG     WCI  35
CLEBURNE       CLOUDY    37  37 100 NW5       30.28F FOG     WCI  34
GRANBURY       CLOUDY    39  35  88 NW6       30.29F WCI  34
$$

TXZ083>090-098>101-113>116-127>130-139>142-154-155-022100-
WESTERN NORTH TEXAS

CITY           SKY/WX    TMP DP  RH WIND       PRES   REMARKS
WICHITA FALLS  CLOUDY    35  29  78 CALM      30.28F FOG
WF-KICKAPOO    CLOUDY    37  32  82 NW5       30.30F WCI  33
VERNON         CLOUDY    37  25  60 CALM      30.27F
ABILENE        CLOUDY    35  32  88 NE5       30.24F WCI  31
ABILENE-DYESS  CLOUDY    34  31  89 NE3       30.23F
BRECKENRIDGE   CLOUDY    34  33  97 N3        30.26F FOG
GRAHAM         CLOUDY    33  33  97 N5        30.28F FOG     WCI  29
MINERAL WELLS  CLOUDY    35  33  92 NW8       30.28F FOG     WCI  29
STEPHENVILLE   CLOUDY    35  34  94 N8        30.27F VSB 1   WCI  29
COMANCHE       CLOUDY    35  35 100 N7        30.26F FOG     WCI  29
BROWNWOOD      CLOUDY    36  34  93 N7        30.25F FOG     WCI  30
COLEMAN        CLOUDY    35  35 100 N6        30.25F FOG     WCI  30
$$

TXZ143>147-156>162-174-175-022100-
CENTRAL TEXAS

CITY           SKY/WX    TMP DP  RH WIND       PRES   REMARKS
WACO           CLOUDY    40  38  93 N8        30.27F FOG     WCI  34
WACO-MCGREGOR    N/A     39  34  81 N8        30.28F WCI  34
HILLSBORO      CLOUDY    39  38  94 NW7       30.28F FOG     WCI  34
CORSICANA      CLOUDY    42  40  92 NE5       30.28F FOG     WCI  39
MEXIA          CLOUDY    40  40  98 NE6       30.25F FOG     WCI  36
HEARNE         CLOUDY    43  41  93 N6        30.27F FOG     WCI  39
CAMERON        CLOUDY    42  41  97 N6        30.27F FOG     WCI  38
TEMPLE         CLOUDY    39  36  87 N8        30.26F WCI  34
KILLEEN        CLOUDY    39  39 100 N8        30.24F FOG     WCI  34
KILLEEN-SKYLRK CLOUDY    41  36  81 N6        30.24F WCI  37
FORT HOOD      CLOUDY    40  39  98 N8        30.24F WCI  34
GATESVILLE     PTSUNNY   39  37  93 N3        30.29F FOG
HAMILTON       CLOUDY    38  38 100 N5        30.26F FOG     WCI  34
LAMPASAS       CLOUDY    39  37  95 N5        30.24F FOG     WCI  35
$$

TXZ095>097-106>112-122>126-135>138-148>153-164>167-022100-
EAST TEXAS

CITY           SKY/WX    TMP DP  RH WIND       PRES   REMARKS
PARIS          CLOUDY    39  36  87 E16       30.29F WCI  30
SULPHUR SPRNGS CLOUDY    41  41  99 E12       30.29F FOG     WCI  35
MOUNT PLEASANT CLOUDY    41  41 100 E10       30.30F WCI  35
GILMER         CLOUDY    40  40  99 NE6       30.29F FOG     WCI  36
MINEOLA        CLOUDY    43  43 100 E5        30.27F FOG
TYLER          CLOUDY    43  41  93 E10       30.26F FOG     WCI  37
LONGVIEW       CLOUDY    43  41  93 E6        30.28F FOG     WCI  39
MARSHALL       CLOUDY    42  40  93 NE7       30.31F WCI  38
ATHENS         CLOUDY    43  43 100 NE5       30.25F FOG
PALESTINE      CLOUDY    45  45 100 NE6       30.27F FOG
JACKSONVILLE   FOG       44  44  99 NE5       30.27F VSB<1/4
HENDERSON      CLOUDY    43  43 100 NE7       30.27F WCI  39
NACOGDOCHES    CLOUDY    46  43  87 N7        30.27F
LUFKIN         CLOUDY    51  47  86 NE5       30.25F FOG
$$

SUPPLEMENTAL OBSERVATIONS (CENTRAL)

CITY           SKY/WX    TMP DP  RH WIND       PRES   REMARKS
$$

SUPPLEMENTAL OBSERVATIONS (WEST)

CITY           SKY/WX    TMP DP  RH WIND       PRES   REMARKS
$$

SUPPLEMENTAL OBSERVATIONS (EAST)

CITY           SKY/WX    TMP DP  RH WIND       PRES   REMARKS
$$

SUPPLEMENTAL OBSERVATIONS ARE A COLLECTION OF AUTOMATED INSTRUMENTS
THAT ARE MAINTAINED BY A VARIETY OF FEDERAL AND STATE AGENCIES.
CERTAIN ELEMENTS...SUCH AS HUMIDITY VALUES AND SUSTAINED WIND
SPEEDS...MAY BE APPROXIMATED.




USA.gov is the U.S. government's official web portal to all federal, state and local government web resources and services.